SERT 2 (4327 NORAD) Tracking and Keplerian Element Data

This shows tracking and keplerian element data for the satellite.

Feedback or suggestion? Click here.




ElementValue
Catalog4327
NameSERT 2
Epoch Orbit57433
Epoch Day15.88860738
Epoch Year2022
RAAN35.4656
Inclination99.1314
Eccentricity0.0005739
Argument of Perigee84.6705
Mean Anonmoly343.6407
Mean Motion13.58507593
Decay Rate-1.2E-07
L11 04327U 70009A 22015.88860738 -.00000012 00000+0 38783-4 0 9996
L22 04327 99.1314 35.4656 0005739 84.6705 343.6407 13.58507593574333

Live tracking and technical data element details for SERT 2 (NORAD 4327). SERT 2 can be tracked NOW for your location showing map with azimuth and elevation plus other details from your city location.

Track the satellite on the map from your city or location and see movement details for azimuth, elevation, latitude, longitude, range, height, and movement on the map or in text.







IsCatalogInMostPopularTable: catalog: 4327, numindb: 270
Update: records affected: 1



GetName: 4327 SERT 2

Hit Count: updated at: Mon, 17 Jan 2022 01:41:27 GMT